User: anonymous   Login
Location: Springfield
(37.2150°N, 93.2980°W)
Time: 09:47:51
(UTC-05:00)
Language:

Iridium 62 - Orbit

View from above orbital plane
View from above orbital plane
View from above satellite
View from above satellite

Ground track
Ground track

The orbit data is extracted from the following two-line orbital elements,

1 25285U 98021A   16205.53427562  .00000012  00000-0 -29366-5 0  9995
2 25285  86.3965   1.2989 0002211  88.0709 272.0740 14.34212811957918
Epoch (UTC): 23 July 2016 12:49:21
Eccentricity: 0.0002211
inclination: 86.3965°
perigee height: 776 km
apogee height: 779 km
right ascension of ascending node: 1.2989°
argument of perigee: 88.0709°
revolutions per day: 14.34212811
mean anomaly at epoch: 272.0740°
orbit number at epoch: 95791

The dashed part of the orbit path shows where the satellite is in the earth's shadow,  

DLR